| time (UTC) | temp F | wind direction | speed MPH | gust MPH | rain 1hr in | rain 24hr in | rain mn in | humidity % | barometer mb |
| 20260502213603 | 51 | 315 | 0.0 | 2.0 | 0.01 | 0.05 | 0.05 | 80 | 1004.5 |
| 20260502212703 | 51 | 315 | 2.0 | 4.0 | 0.01 | 0.05 | 0.05 | 80 | 1004.3 |
| 20260502211803 | 51 | 315 | 2.0 | 4.0 | 0.01 | 0.05 | 0.05 | 80 | 1004.5 |
| 20260502210924 | 52 | 320 | 2.0 | 7.0 | 0.01 | 0.05 | 0.05 | 80 | 1004.4 |
| 20260502210004 | 52 | 313 | 4.0 | 7.0 | 0.01 | 0.05 | 0.05 | 79 | 1004.4 |
| 20260502205403 | 52 | 310 | 5.0 | 9.0 | 0.01 | 0.05 | 0.05 | 77 | 1004.7 |
| 20260502204503 | 53 | 319 | 5.0 | 9.0 | 0.01 | 0.05 | 0.05 | 76 | 1004.9 |
| 20260502203603 | 53 | 324 | 3.0 | 9.0 | 0.00 | 0.04 | 0.04 | 74 | 1004.6 |
| 20260502202705 | 54 | 322 | 3.0 | 8.0 | 0.00 | 0.04 | 0.04 | 73 | 1004.4 |
| 20260502201803 | 55 | 335 | 3.0 | 8.0 | 0.00 | 0.04 | 0.04 | 71 | 1004.2 |
| 20260502200903 | 55 | 333 | 4.0 | 11.0 | 0.00 | 0.04 | 0.04 | 69 | 1004.2 |
| 20260502200005 | 56 | 323 | 3.0 | 8.0 | 0.01 | 0.04 | 0.04 | 67 | 1004.3 |
| 20260502195403 | 56 | 325 | 4.0 | 9.0 | 0.01 | 0.04 | 0.04 | 64 | 1004.3 |
| 20260502194505 | 56 | 327 | 5.0 | 8.0 | 0.02 | 0.04 | 0.04 | 69 | 1004.2 |
| 20260502193603 | 56 | 325 | 3.0 | 11.0 | 0.04 | 0.04 | 0.04 | 72 | 1004.3 |
| 20260502192724 | 56 | 320 | 6.0 | 11.0 | 0.04 | 0.04 | 0.04 | 70 | 1004.6 |
| 20260502191805 | 55 | 304 | 4.0 | 9.0 | 0.04 | 0.04 | 0.04 | 74 | 1004.3 |
| 20260502190905 | 56 | 277 | 4.0 | 8.0 | 0.04 | 0.04 | 0.04 | 73 | 1004.3 |
| 20260502190004 | 56 | 274 | 4.0 | 8.0 | 0.02 | 0.02 | 0.02 | 69 | 1004.3 |
| 20260502185424 | 57 | 273 | 4.0 | 8.0 | 0.02 | 0.02 | 0.02 | 67 | 1004.6 |
| 20260502184503 | 57 | 289 | 5.0 | 11.0 | 0.01 | 0.01 | 0.01 | 68 | 1004.7 |
| 20260502183624 | 58 | 284 | 4.0 | 7.0 | 0.00 | 0.00 | 0.00 | 63 | 1004.6 |
| 20260502182703 | 60 | 291 | 3.0 | 9.0 | 0.00 | 0.00 | 0.00 | 56 | 1004.2 |
| 20260502181803 | 61 | 303 | 4.0 | 9.0 | 0.00 | 0.00 | 0.00 | 50 | 1003.8 |
| 20260502180905 | 62 | 308 | 4.0 | 9.0 | 0.00 | 0.00 | 0.00 | 49 | 1003.5 |
| 20260502163603 | 68 | 257 | 4.0 | 15.0 | 0.00 | 0.00 | 0.00 | 41 | 1002.8 |
| 20260502162726 | 69 | 241 | 6.0 | 13.0 | 0.00 | 0.00 | 0.00 | 41 | 1002.9 |
| 20260502161824 | 69 | 254 | 8.0 | 16.0 | 0.00 | 0.00 | 0.00 | 42 | 1003.1 |
| 20260502160905 | 69 | 242 | 10.0 | 18.0 | 0.00 | 0.00 | 0.00 | 41 | 1003.2 |
| 20260502151824 | 70 | 209 | 9.0 | 18.0 | 0.00 | 0.00 | 0.00 | 36 | 1003.5 |
| 20260502150903 | 70 | 237 | 11.0 | 21.0 | 0.00 | 0.00 | 0.00 | 36 | 1003.5 |
| 20260502123603 | 70 | 266 | 8.0 | 20.0 | 0.00 | 0.00 | 0.00 | 30 | 1004.7 |
| 20260502122703 | 70 | 256 | 8.0 | 25.0 | 0.00 | 0.00 | 0.00 | 31 | 1004.9 |
| 20260502121803 | 70 | 228 | 8.0 | 20.0 | 0.00 | 0.00 | 0.00 | 32 | 1004.9 |
| 20260502120903 | 70 | 239 | 9.0 | 18.0 | 0.00 | 0.00 | 0.00 | 31 | 1004.9 |
| 20260502115403 | 70 | 242 | 8.0 | 20.0 | 0.00 | 0.00 | 0.00 | 32 | 1005.2 |
| 20260502114503 | 69 | 249 | 8.0 | 20.0 | 0.00 | 0.00 | 0.00 | 31 | 1005.5 |
| 20260502113603 | 70 | 241 | 8.0 | 16.0 | 0.00 | 0.00 | 0.00 | 33 | 1005.5 |
| 20260502112703 | 69 | 252 | 7.0 | 21.0 | 0.00 | 0.00 | 0.00 | 32 | 1005.7 |
| 20260502111803 | 68 | 263 | 14.0 | 21.0 | 0.00 | 0.00 | 0.00 | 33 | 1005.8 |
| 20260502110903 | 68 | 258 | 11.0 | 22.0 | 0.00 | 0.00 | 0.00 | 33 | 1005.9 |
| 20260502110003 | 68 | 254 | 8.0 | 22.0 | 0.00 | 0.00 | 0.00 | 33 | 1005.8 |
| 20260502105403 | 68 | 262 | 11.0 | 21.0 | 0.00 | 0.00 | 0.00 | 33 | 1005.8 |
| 20260502104503 | 67 | 241 | 13.0 | 24.0 | 0.00 | 0.00 | 0.00 | 33 | 1006.0 |
| 20260502103604 | 68 | 237 | 8.0 | 20.0 | 0.00 | 0.00 | 0.00 | 34 | 1006.1 |
| 20260502102703 | 67 | 241 | 10.0 | 20.0 | 0.00 | 0.00 | 0.00 | 33 | 1006.2 |
| 20260502101824 | 67 | 233 | 8.0 | 15.0 | 0.00 | 0.00 | 0.00 | 33 | 1006.2 |
| 20260502100903 | 67 | 242 | 8.0 | 21.0 | 0.00 | 0.00 | 0.00 | 33 | 1006.4 |
| 20260502090903 | 65 | 248 | 6.0 | 23.0 | 0.00 | 0.00 | 0.00 | 31 | 1007.2 |
| 20260502070903 | 58 | 216 | 4.0 | 14.0 | 0.00 | 0.00 | 0.00 | 44 | 1008.1 |
| 20260502070003 | 58 | 230 | 8.0 | 14.0 | 0.00 | 0.00 | 0.00 | 44 | 1008.4 |
| 20260502065403 | 57 | 230 | 5.0 | 14.0 | 0.00 | 0.00 | 0.00 | 45 | 1008.3 |
| 20260502064505 | 57 | 248 | 8.0 | 13.0 | 0.00 | 0.00 | 0.00 | 46 | 1008.4 |
| 20260502063603 | 57 | 226 | 5.0 | 14.0 | 0.00 | 0.00 | 0.00 | 46 | 1008.3 |
| 20260502062704 | 56 | 221 | 8.0 | 13.0 | 0.00 | 0.00 | 0.00 | 47 | 1008.4 |
| 20260502060905 | 56 | 226 | 5.0 | 9.0 | 0.00 | 0.00 | 0.00 | 49 | 1008.5 |
| 20260502060024 | 55 | 230 | 6.0 | 11.0 | 0.00 | 0.00 | 0.00 | 49 | 1008.4 |
| 20260502055403 | 55 | 230 | 4.0 | 11.0 | 0.00 | 0.00 | 0.00 | 50 | 1008.5 |
| 20260502054503 | 55 | 240 | 4.0 | 8.0 | 0.00 | 0.00 | 0.00 | 51 | 1008.7 |
| 20260502053624 | 54 | 228 | 4.0 | 7.0 | 0.00 | 0.00 | 0.00 | 52 | 1008.7 |
| 20260502052703 | 54 | 237 | 3.0 | 4.0 | 0.00 | 0.00 | 0.00 | 54 | 1008.6 |
| 20260502051804 | 53 | 239 | 3.0 | 6.0 | 0.00 | 0.00 | 0.00 | 55 | 1008.7 |
| 20260502050903 | 53 | 251 | 3.0 | 6.0 | 0.00 | 0.00 | 0.00 | 55 | 1008.5 |
| 20260502050026 | 53 | 238 | 2.0 | 8.0 | 0.00 | 0.00 | 0.00 | 55 | 1008.8 |
| 20260502045425 | 52 | 245 | 2.0 | 4.0 | 0.00 | 0.00 | 0.00 | 55 | 1009.0 |
| 20260502044505 | 52 | 232 | 2.0 | 4.0 | 0.00 | 0.00 | 0.00 | 56 | 1008.6 |
| 20260502043606 | 52 | 240 | 2.0 | 4.0 | 0.00 | 0.00 | 0.00 | 56 | 1008.8 |
| 20260502042726 | 52 | 232 | 1.0 | 4.0 | 0.00 | 0.00 | 0.00 | 57 | 1008.9 |
| 20260502041804 | 51 | 241 | 2.0 | 8.0 | 0.00 | 0.00 | 0.00 | 58 | 1008.7 |
| 20260502040903 | 51 | 247 | 4.0 | 6.0 | 0.00 | 0.00 | 0.00 | 58 | 1008.7 |
| 20260502040003 | 51 | 232 | 3.0 | 7.0 | 0.00 | 0.00 | 0.00 | 58 | 1008.9 |
| 20260502035403 | 51 | 240 | 4.0 | 8.0 | 0.00 | 0.00 | 0.00 | 59 | 1009.1 |
| 20260502034503 | 50 | 252 | 5.0 | 11.0 | 0.00 | 0.00 | 0.00 | 59 | 1009.0 |
| 20260502033605 | 51 | 249 | 4.0 | 8.0 | 0.00 | 0.00 | 0.00 | 59 | 1009.2 |
| 20260502032703 | 50 | 232 | 6.0 | 9.0 | 0.00 | 0.00 | 0.00 | 59 | 1009.3 |
| 20260502031824 | 50 | 230 | 4.0 | 9.0 | 0.00 | 0.00 | 0.00 | 59 | 1009.3 |
| 20260502030903 | 50 | 251 | 2.0 | 9.0 | 0.00 | 0.00 | 0.00 | 59 | 1009.3 |
| 20260502030026 | 51 | 238 | 4.0 | 11.0 | 0.00 | 0.00 | 0.00 | 58 | 1009.5 |
| 20260502025403 | 51 | 234 | 4.0 | 9.0 | 0.00 | 0.00 | 0.00 | 58 | 1009.6 |
| 20260502024503 | 51 | 242 | 5.0 | 11.0 | 0.00 | 0.00 | 0.00 | 58 | 1009.7 |
| 20260502023605 | 51 | 240 | 6.0 | 11.0 | 0.00 | 0.00 | 0.00 | 57 | 1009.7 |
| 20260502022703 | 51 | 242 | 4.0 | 9.0 | 0.00 | 0.00 | 0.00 | 57 | 1009.8 |
| 20260502021824 | 51 | 233 | 4.0 | 7.0 | 0.00 | 0.00 | 0.00 | 56 | 1009.7 |
| 20260502020903 | 52 | 242 | 2.0 | 8.0 | 0.00 | 0.00 | 0.00 | 56 | 1009.9 |
| 20260502020024 | 52 | 243 | 4.0 | 11.0 | 0.00 | 0.00 | 0.00 | 55 | 1010.1 |
| 20260502015404 | 53 | 235 | 4.0 | 11.0 | 0.00 | 0.00 | 0.00 | 54 | 1010.2 |
| 20260502014524 | 53 | 227 | 5.0 | 9.0 | 0.00 | 0.00 | 0.00 | 53 | 1010.2 |
| 20260502013604 | 53 | 247 | 2.0 | 6.0 | 0.00 | 0.00 | 0.00 | 54 | 1010.2 |
| 20260502012703 | 53 | 258 | 1.0 | 4.0 | 0.00 | 0.00 | 0.00 | 54 | 1010.3 |
| 20260502011805 | 53 | 282 | 2.0 | 4.0 | 0.00 | 0.00 | 0.00 | 53 | 1010.3 |
| 20260502010924 | 53 | 250 | 2.0 | 9.0 | 0.00 | 0.00 | 0.00 | 53 | 1010.4 |
| 20260502010003 | 54 | 268 | 3.0 | 8.0 | 0.00 | 0.00 | 0.00 | 52 | 1010.5 |
| 20260502005404 | 54 | 237 | 2.0 | 9.0 | 0.00 | 0.00 | 0.00 | 51 | 1010.5 |
| 20260502004503 | 54 | 246 | 4.0 | 7.0 | 0.00 | 0.00 | 0.00 | 52 | 1010.6 |
| 20260502003605 | 54 | 252 | 3.0 | 6.0 | 0.00 | 0.00 | 0.00 | 51 | 1010.7 |
| 20260502002703 | 54 | 245 | 2.0 | 9.0 | 0.00 | 0.00 | 0.00 | 51 | 1010.7 |
| 20260502001825 | 55 | 236 | 4.0 | 9.0 | 0.00 | 0.00 | 0.00 | 50 | 1011.0 |
| 20260502000904 | 55 | 255 | 3.0 | 8.0 | 0.00 | 0.00 | 0.00 | 51 | 1011.0 |
| 20260502000005 | 55 | 262 | 3.0 | 8.0 | 0.00 | 0.00 | 0.00 | 50 | 1011.1 |
| 20260501235424 | 55 | 257 | 3.0 | 8.0 | 0.00 | 0.00 | 0.00 | 50 | 1010.7 |
| 20260501234524 | 56 | 292 | 4.0 | 7.0 | 0.00 | 0.00 | 0.00 | 50 | 1011.1 |
| 20260501233603 | 56 | 294 | 2.0 | 9.0 | 0.00 | 0.00 | 0.00 | 50 | 1011.2 |
| 20260501232703 | 56 | 288 | 4.0 | 7.0 | 0.00 | 0.00 | 0.00 | 50 | 1011.1 |
| 20260501231803 | 56 | 318 | 2.0 | 6.0 | 0.00 | 0.00 | 0.00 | 49 | 1011.3 |
| 20260501230905 | 56 | 234 | 2.0 | 6.0 | 0.00 | 0.00 | 0.00 | 48 | 1011.4 |
| 20260501230003 | 57 | 235 | 2.0 | 6.0 | 0.00 | 0.00 | 0.00 | 48 | 1011.2 |
| 20260501225404 | 57 | 239 | 2.0 | 4.0 | 0.00 | 0.00 | 0.00 | 48 | 1011.5 |
| 20260501224503 | 57 | 237 | 2.0 | 7.0 | 0.00 | 0.00 | 0.00 | 47 | 1011.5 |
| 20260501223603 | 58 | 217 | 3.0 | 7.0 | 0.00 | 0.00 | 0.00 | 46 | 1011.7 |
| 20260501222703 | 58 | 211 | 2.0 | 7.0 | 0.00 | 0.00 | 0.00 | 45 | 1011.9 |
| 20260501221803 | 58 | 252 | 0.0 | 9.0 | 0.00 | 0.00 | 0.00 | 45 | 1011.9 |
| 20260501220905 | 59 | 253 | 4.0 | 8.0 | 0.00 | 0.00 | 0.00 | 44 | 1011.7 |
| 20260501215403 | 60 | 241 | 4.0 | 13.0 | 0.00 | 0.00 | 0.00 | 43 | 1011.6 |
| 20260501214503 | 60 | 226 | 8.0 | 13.0 | 0.00 | 0.00 | 0.00 | 43 | 1011.9 |